Starlink 31940

operational
NORAD ID: 59873 Int'l Des: 2024-098 Owner: SPXS Country: US Constellation: starlink
LEOCIRCULAR

Starlink 31940について

説明を読み込み中...

リアルタイム位置

3D地球を読み込み中...

次回通過

高度履歴

Altitude vs Time

uPlot chart will show altitude changes over time

軌道要素

1 59873U 24098R 25257.20804080 .00000505 00000-0 27884-4 0 9991
2 59873 43.0006 187.0521 0000912 260.9016 99.1732 15.27579724 74941
Epoch: Sep 14, 2025 • Age: 31 hours

現在のステータス

高度 483.0 km
速度 7.63 km/s
衛星直下点 -1.76°S, 167.03°W
打ち上げ日 May 24, 2024
運用期間 1.3 years
タイプ internet

技術仕様

分類 Payload
質量 730.00 kg
乾燥質量 700.00 kg
総質量 730.00 kg
長さ 0.30 m
直径 4.10 m
スパン 29.00 m
形状 Box + pan
製造者 SPXS
バスタイプ Starlink V2M
フェーズステータス In Orbit
所有者/国 SPXS/US

大規模コンステレーション

Loading constellations...